Location: Oberkirch
(48.5323°N, 8.0787°E)
Time: 07:04:48
(UTC+00:00)

SJ 16-02 - Pass Details

Date: 08 November 2025
Orbit: 585 x 594 km, 75.0° (Epoch: 10 December)

Event Time Altitude Azimuth Distance (km) Brightness Sun altitude
Exits shadow 04:25:56 - 349° (N) 2,658 4.5 -19.9°
Reaches altitude 10° 04:28:00 10° 1° (N) 1,936 3.9 -19.5°
Maximum altitude 04:31:34 25° 57° (ENE) 1,226 3.4 -18.9°
Drops below altitude 10° 04:35:06 10° 112° (ESE) 1,920 5.0 -18.3°
Sets 04:37:38 0° 126° (SE) 2,814 5.7 -17.9°
